EST,Max TemperatureF,Mean TemperatureF,Min TemperatureF,Max Dew PointF,MeanDew PointF,Min DewpointF,Max Humidity, Mean Humidity, Min Humidity, Max Sea Level PressureIn, Mean Sea Level PressureIn, Min Sea Level PressureIn, Max VisibilityMiles, Mean VisibilityMiles, Min VisibilityMiles, Max Wind SpeedMPH, Mean Wind SpeedMPH, Max Gust SpeedMPH,PrecipitationIn, CloudCover, Events, WindDirDegrees
2012-12-1,81,69,56,59,57,52,90,72,42,30.24,30.20,30.14,10,10,10,17,8,23,0.00,0,,59
2012-12-2,82,72,61,63,59,54,97,73,37,30.26,30.21,30.17,10,10,10,16,7,20,0.00,1,,67
2012-12-3,83,73,62,63,58,53,93,69,39,30.26,30.20,30.16,10,10,10,18,7,22,0.00,3,,82
2012-12-4,82,71,59,58,55,48,90,66,33,30.28,30.21,30.16,10,10,10,16,7,21,0.00,2,,85
2012-12-5,78,67,55,63,58,53,93,75,50,30.17,30.09,30.03,10,10,9,12,5,18,0.00,3,,22
2012-12-6,81,72,63,64,61,59,93,75,51,30.03,29.98,29.92,10,10,10,12,6,15,0.00,4,,77
2012-12-7,82,71,60,65,62,61,100,86,54,30.00,29.96,29.91,10,8,2,13,6,15,0.00,2,,60
2012-12-8,79,71,62,70,65,61,100,89,62,30.04,30.00,29.95,10,8,0,10,4,18,0.00,3,Fog,99
2012-12-9,78,70,61,69,64,61,100,92,62,30.09,30.04,30.01,10,5,0,8,2,10,0.00,1,Fog,278
2012-12-10,82,72,61,73,68,61,100,91,74,30.02,29.94,29.86,10,8,1,21,9,29,0.62,5,Rain,183
2012-12-11,77,73,68,72,70,68,100,93,82,30.02,29.96,29.89,10,9,1,22,6,25,0.40,4,Rain,171
2012-12-12,81,74,66,72,69,64,100,89,69,30.07,30.03,29.99,10,10,5,12,6,15,T,4,Rain,192
2012-12-13,73,65,57,66,59,52,97,80,49,30.18,30.11,30.05,10,10,7,16,10,23,0.00,5,,359
2012-12-14,72,64,56,57,55,52,93,82,57,30.21,30.14,30.09,10,10,7,15,9,20,0.00,5,,42
2012-12-15,80,68,56,64,60,55,100,82,54,30.13,30.08,30.03,10,9,6,12,6,14,0.00,2,,69
2012-12-16,79,69,59,65,62,58,100,84,60,30.05,30.00,29.95,10,10,10,13,4,15,0.00,1,,143
2012-12-17,78,69,60,69,65,60,100,86,69,29.98,29.93,29.89,10,10,10,17,7,21,0.00,1,,181
2012-12-18,79,67,55,72,65,55,100,87,67,30.04,29.97,29.89,10,9,1,17,6,22,0.01,2,,255
2012-12-19,79,63,46,56,50,43,100,85,31,30.11,30.05,30.03,10,6,0,10,2,13,0.00,0,Fog,82
2012-12-20,80,67,54,70,63,49,96,82,60,30.08,30.00,29.94,10,9,2,22,9,36,0.23,3,Rain,172
2012-12-21,70,62,53,68,46,37,90,60,42,30.22,30.11,29.98,10,10,4,26,16,35,0.04,2,Rain,327
2012-12-22,63,52,40,39,35,28,82,54,27,30.30,30.25,30.21,10,10,10,15,7,20,0.00,0,,359
2012-12-23,66,52,37,50,41,33,92,69,32,30.27,30.20,30.14,10,10,10,10,4,13,0.00,0,,68
2012-12-24,69,59,48,58,50,39,93,73,55,30.14,30.07,29.99,10,10,10,16,4,20,0.00,2,,146
2012-12-25,75,65,54,59,56,52,93,76,57,30.02,29.95,29.88,10,10,10,17,8,22,0.00,0,,142
2012-12-26,77,67,56,69,59,48,93,80,69,30.02,29.90,29.84,10,9,1,25,14,35,0.12,5,Rain,265
2012-12-27,63,53,43,47,45,41,93,74,46,30.10,30.05,30.01,10,10,9,13,5,18,0.00,0,,5
2012-12-28,73,58,42,66,55,42,100,83,49,30.08,30.00,29.93,10,9,4,13,7,15,0.27,5,Rain,102
2012-12-29,74,66,57,70,65,47,100,88,67,30.16,29.97,29.87,10,7,0,23,15,31,0.04,6,Fog-Rain,250
2012-12-30,59,51,42,45,38,32,80,66,40,30.35,30.28,30.17,10,10,10,20,10,25,0.00,1,,30
2012-12-31,74,59,44,56,50,41,93,76,49,30.34,30.26,30.18,10,10,6,17,5,21,0.00,0,,56